Location: Zagórów
(52.1631°N, 17.8841°E)
Time: 12:42:59
(UTC+01:00)

ISS - Visible Passes

Search period start: 25 February 2018 00:00
Search period end: 07 March 2018 00:00
Orbit: 402 x 407 km, 51.6° (Epoch: 25 February)

Date Brightness Start Highest point End Pass type
(mag) Time Alt. Az. Time Alt. Az. Time Alt. Az.
27 Feb -0.7 05:35:21 10° SSE 05:36:30 11° SE 05:37:38 10° ESE visible
01 Mar -1.4 05:25:34 10° SSW 05:28:04 20° SE 05:30:34 10° E visible
02 Mar -1.1 04:34:19 10° S 04:36:00 13° SE 04:37:42 10° ESE visible
03 Mar -2.4 05:16:53 11° SW 05:19:42 33° SSE 05:22:42 10° E visible
04 Mar -2.0 04:26:47 21° S 04:27:32 23° SSE 04:30:12 10° E visible
05 Mar -0.9 03:36:35 13° ESE 03:36:35 13° ESE 03:37:28 10° ESE visible
05 Mar -3.3 05:09:14 19° SW 05:11:22 52° SSE 05:14:35 10° E visible
06 Mar -2.9 04:18:58 37° SSE 04:19:06 37° SSE 04:22:11 10° E visible
